Location: Newark
(45.6833°N, 12.6333°E)
Time: 05:18:13
(UTC+00:00)

N. Korean satellite - Pass Details

Date: 24 November 2019
Orbit: 455 x 506 km, 97.2° (Epoch: 10 December)

Event Time Altitude Azimuth Distance (km) Brightness Sun altitude
Rises 16:10:10 0° 168° (SSE) 2,573 10.4 -7.0°
Reaches altitude 10° 16:12:13 10° 169° (SSE) 1,701 9.5 -7.3°
Maximum altitude 16:15:54 84° 258° (WSW) 513 6.7 -7.9°
Drops below altitude 10° 16:19:38 10° 347° (NNW) 1,731 9.3 -8.5°
Sets 16:21:45 0° 348° (NNW) 2,623 10.2 -8.8°
